| time (UTC) | temp C | wind direction | speed KPH | gust KPH | rain 1hr cm | rain 24hr cm | rain mn cm | humidity % | barometer mb |
| 20260506201127 | 2 | 337 | 3.2 | 4.8 | 0.00 | 0.08 | 0.08 | 76 | 1009.7 |
| 20260506200623 | 2 | 342 | 3.2 | 3.2 | 0.00 | 0.08 | 0.08 | 75 | 1009.6 |
| 20260506200120 | 3 | 348 | 1.6 | 4.8 | 0.00 | 0.08 | 0.08 | 74 | 1009.5 |
| 20260506195617 | 3 | 56 | 0.0 | 0.0 | 0.00 | 0.08 | 0.08 | 73 | 1009.5 |
| 20260506195113 | 3 | 111 | 0.0 | 4.8 | 0.00 | 0.08 | 0.08 | 72 | 1009.5 |
| 20260506194610 | 3 | 129 | 4.8 | 6.4 | 0.00 | 0.08 | 0.08 | 74 | 1009.4 |
| 20260506194107 | 3 | 118 | 6.4 | 9.7 | 0.00 | 0.08 | 0.08 | 73 | 1009.3 |
| 20260506193605 | 3 | 98 | 3.2 | 4.8 | 0.00 | 0.08 | 0.08 | 74 | 1009.4 |
| 20260506193102 | 3 | 98 | 3.2 | 4.8 | 0.00 | 0.08 | 0.08 | 75 | 1009.5 |
| 20260506192558 | 3 | 133 | 3.2 | 9.7 | 0.00 | 0.08 | 0.08 | 74 | 1009.4 |
| 20260506192054 | 4 | 130 | 8.0 | 11.3 | 0.00 | 0.08 | 0.08 | 74 | 1009.2 |
| 20260506191551 | 4 | 120 | 6.4 | 11.3 | 0.00 | 0.08 | 0.08 | 74 | 1009.4 |
| 20260506191047 | 4 | 79 | 6.4 | 12.9 | 0.00 | 0.08 | 0.08 | 74 | 1009.3 |
| 20260506190544 | 4 | 145 | 9.7 | 11.3 | 0.00 | 0.08 | 0.08 | 73 | 1009.1 |
| 20260506190041 | 4 | 121 | 6.4 | 11.3 | 0.00 | 0.08 | 0.08 | 73 | 1009.2 |
| 20260506185539 | 4 | 126 | 6.4 | 12.9 | 0.00 | 0.08 | 0.08 | 73 | 1009.3 |
| 20260506185035 | 4 | 268 | 4.8 | 6.4 | 0.00 | 0.08 | 0.08 | 72 | 1009.1 |
| 20260506184533 | 4 | 146 | 3.2 | 6.4 | 0.00 | 0.08 | 0.08 | 71 | 1009.1 |
| 20260506184030 | 4 | 170 | 1.6 | 3.2 | 0.00 | 0.08 | 0.08 | 72 | 1009.0 |
| 20260506183525 | 5 | 94 | 1.6 | 4.8 | 0.00 | 0.08 | 0.08 | 72 | 1009.0 |
| 20260506183022 | 5 | 256 | 3.2 | 9.7 | 0.00 | 0.08 | 0.08 | 72 | 1009.0 |
| 20260506182520 | 5 | 160 | 3.2 | 6.4 | 0.00 | 0.08 | 0.08 | 72 | 1009.1 |
| 20260506182017 | 5 | 166 | 8.0 | 9.7 | 0.00 | 0.08 | 0.08 | 71 | 1009.0 |
| 20260506181515 | 5 | 137 | 1.6 | 6.4 | 0.00 | 0.08 | 0.08 | 67 | 1009.1 |
| 20260506181011 | 5 | 195 | 6.4 | 12.9 | 0.00 | 0.08 | 0.08 | 67 | 1009.0 |
| 20260506180508 | 5 | 159 | 3.2 | 11.3 | 0.00 | 0.08 | 0.08 | 67 | 1009.1 |
| 20260506180005 | 5 | 235 | 1.6 | 9.7 | 0.00 | 0.08 | 0.08 | 69 | 1008.9 |
| 20260506175500 | 5 | 263 | 4.8 | 9.7 | 0.00 | 0.08 | 0.08 | 68 | 1009.0 |
| 20260506174957 | 5 | 272 | 9.7 | 12.9 | 0.00 | 0.08 | 0.08 | 65 | 1009.0 |
| 20260506174456 | 5 | 237 | 3.2 | 9.7 | 0.00 | 0.08 | 0.08 | 67 | 1008.9 |
| 20260506173952 | 5 | 262 | 4.8 | 12.9 | 0.00 | 0.08 | 0.08 | 67 | 1008.9 |
| 20260506173449 | 5 | 150 | 6.4 | 12.9 | 0.00 | 0.08 | 0.08 | 67 | 1008.9 |
| 20260506172946 | 5 | 112 | 4.8 | 12.9 | 0.00 | 0.08 | 0.08 | 68 | 1008.9 |
| 20260506172444 | 5 | 357 | 4.8 | 11.3 | 0.00 | 0.08 | 0.08 | 68 | 1008.8 |
| 20260506171940 | 5 | 54 | 3.2 | 11.3 | 0.00 | 0.08 | 0.08 | 69 | 1008.8 |
| 20260506171437 | 5 | 243 | 3.2 | 12.9 | 0.00 | 0.08 | 0.08 | 68 | 1008.8 |
| 20260506170935 | 6 | 215 | 6.4 | 12.9 | 0.00 | 0.08 | 0.08 | 69 | 1008.8 |
| 20260506170431 | 6 | 314 | 6.4 | 12.9 | 0.00 | 0.08 | 0.08 | 66 | 1008.8 |
| 20260506165930 | 6 | 228 | 8.0 | 14.5 | 0.00 | 0.08 | 0.08 | 64 | 1008.7 |
| 20260506165428 | 6 | 116 | 1.6 | 9.7 | 0.00 | 0.08 | 0.08 | 63 | 1008.5 |
| 20260506164924 | 6 | 107 | 3.2 | 12.9 | 0.00 | 0.08 | 0.08 | 63 | 1008.5 |
| 20260506164421 | 6 | 100 | 6.4 | 12.9 | 0.00 | 0.08 | 0.08 | 63 | 1008.5 |
| 20260506163919 | 6 | 188 | 6.4 | 12.9 | 0.00 | 0.08 | 0.08 | 62 | 1008.5 |
| 20260506163414 | 6 | 200 | 4.8 | 12.9 | 0.00 | 0.08 | 0.08 | 63 | 1008.5 |
| 20260506162909 | 6 | 141 | 4.8 | 12.9 | 0.00 | 0.08 | 0.08 | 63 | 1008.6 |
| 20260506162407 | 6 | 108 | 6.4 | 11.3 | 0.00 | 0.08 | 0.08 | 63 | 1008.7 |
| 20260506161904 | 6 | 233 | 1.6 | 9.7 | 0.00 | 0.08 | 0.08 | 63 | 1008.6 |
| 20260506161402 | 6 | 215 | 4.8 | 9.7 | 0.00 | 0.08 | 0.08 | 61 | 1008.5 |
| 20260506160859 | 7 | 285 | 6.4 | 12.9 | 0.00 | 0.08 | 0.08 | 58 | 1008.6 |
| 20260506160355 | 7 | 214 | 6.4 | 14.5 | 0.00 | 0.08 | 0.08 | 60 | 1008.5 |
| 20260506155854 | 7 | 270 | 3.2 | 6.4 | 0.00 | 0.08 | 0.08 | 59 | 1008.3 |
| 20260506155351 | 7 | 198 | 3.2 | 6.4 | 0.00 | 0.08 | 0.08 | 58 | 1008.5 |
| 20260506153508 | 7 | 300 | 3.2 | 4.8 | 0.00 | 0.08 | 0.08 | 59 | 1008.3 |
| 20260506153005 | 6 | 255 | 4.8 | 4.8 | 0.00 | 0.08 | 0.08 | 61 | 1008.3 |
| 20260506152502 | 6 | 253 | 1.6 | 4.8 | 0.00 | 0.08 | 0.08 | 59 | 1008.4 |
| 20260506152000 | 7 | 288 | 3.2 | 11.3 | 0.00 | 0.08 | 0.08 | 59 | 1008.1 |
| 20260506151457 | 7 | 325 | 3.2 | 6.4 | 0.00 | 0.08 | 0.08 | 55 | 1008.1 |
| 20260506150954 | 7 | 280 | 1.6 | 6.4 | 0.00 | 0.08 | 0.08 | 58 | 1008.3 |
| 20260506150450 | 7 | 297 | 3.2 | 6.4 | 0.00 | 0.08 | 0.08 | 58 | 1008.3 |
| 20260506145948 | 7 | 323 | 3.2 | 6.4 | 0.00 | 0.08 | 0.08 | 56 | 1008.2 |
| 20260506145444 | 7 | 257 | 3.2 | 6.4 | 0.00 | 0.08 | 0.08 | 54 | 1007.9 |
| 20260506144942 | 7 | 286 | 6.4 | 9.7 | 0.00 | 0.08 | 0.08 | 57 | 1008.2 |
| 20260506144438 | 7 | 295 | 6.4 | 9.7 | 0.00 | 0.08 | 0.08 | 54 | 1008.1 |
| 20260506143936 | 6 | 308 | 3.2 | 4.8 | 0.00 | 0.08 | 0.08 | 58 | 1008.2 |
| 20260506143433 | 6 | 298 | 3.2 | 6.4 | 0.00 | 0.08 | 0.08 | 60 | 1008.2 |
| 20260506142931 | 7 | 277 | 3.2 | 4.8 | 0.00 | 0.08 | 0.08 | 56 | 1008.1 |
| 20260506142429 | 7 | 257 | 3.2 | 4.8 | 0.00 | 0.08 | 0.08 | 57 | 1008.2 |
| 20260506141927 | 8 | 248 | 1.6 | 4.8 | 0.00 | 0.08 | 0.08 | 54 | 1008.1 |
| 20260506141424 | 7 | 332 | 1.6 | 3.2 | 0.00 | 0.08 | 0.08 | 56 | 1008.2 |
| 20260506140923 | 7 | 293 | 1.6 | 6.4 | 0.00 | 0.08 | 0.08 | 58 | 1008.2 |
| 20260506140419 | 7 | 274 | 3.2 | 9.7 | 0.00 | 0.08 | 0.08 | 59 | 1008.1 |
| 20260506135916 | 7 | 229 | 3.2 | 6.4 | 0.00 | 0.08 | 0.08 | 58 | 1007.9 |
| 20260506135413 | 6 | 311 | 6.4 | 6.4 | 0.00 | 0.08 | 0.08 | 59 | 1007.9 |
| 20260506134909 | 8 | 286 | 4.8 | 9.7 | 0.00 | 0.08 | 0.08 | 53 | 1008.0 |
| 20260506134406 | 8 | 335 | 9.7 | 12.9 | 0.00 | 0.08 | 0.08 | 56 | 1007.8 |
| 20260506133903 | 8 | 306 | 1.6 | 4.8 | 0.00 | 0.08 | 0.08 | 57 | 1007.8 |
| 20260506133359 | 7 | 260 | 3.2 | 6.4 | 0.00 | 0.08 | 0.08 | 60 | 1007.9 |
| 20260506132856 | 6 | 10 | 1.6 | 6.4 | 0.00 | 0.08 | 0.08 | 56 | 1007.9 |
| 20260506132353 | 6 | 330 | 9.7 | 12.9 | 0.00 | 0.08 | 0.08 | 58 | 1007.9 |
| 20260506131851 | 6 | 64 | 3.2 | 6.4 | 0.00 | 0.08 | 0.08 | 60 | 1008.0 |
| 20260506131347 | 6 | 314 | 3.2 | 11.3 | 0.00 | 0.08 | 0.08 | 64 | 1007.8 |
| 20260506130845 | 5 | 342 | 3.2 | 9.7 | 0.00 | 0.08 | 0.08 | 66 | 1008.0 |
| 20260506130341 | 5 | 341 | 3.2 | 4.8 | 0.00 | 0.08 | 0.08 | 66 | 1008.1 |
| 20260506125839 | 5 | 268 | 11.3 | 14.5 | 0.00 | 0.08 | 0.08 | 63 | 1008.0 |
| 20260506125337 | 5 | 296 | 6.4 | 14.5 | 0.00 | 0.08 | 0.08 | 66 | 1007.9 |
| 20260506124835 | 5 | 294 | 3.2 | 6.4 | 0.00 | 0.08 | 0.08 | 60 | 1007.7 |
| 20260506124332 | 5 | 300 | 1.6 | 4.8 | 0.00 | 0.08 | 0.08 | 60 | 1007.9 |
| 20260506123829 | 5 | 333 | 0.0 | 3.2 | 0.00 | 0.08 | 0.08 | 57 | 1007.9 |
| 20260506123328 | 5 | 310 | 3.2 | 9.7 | 0.00 | 0.08 | 0.08 | 61 | 1007.8 |
| 20260506122824 | 5 | 292 | 8.0 | 11.3 | 0.00 | 0.08 | 0.08 | 60 | 1007.7 |
| 20260506122321 | 5 | 299 | 4.8 | 9.7 | 0.00 | 0.08 | 0.08 | 61 | 1007.8 |
| 20260506121820 | 5 | 301 | 3.2 | 4.8 | 0.00 | 0.08 | 0.08 | 63 | 1007.6 |
| 20260506121316 | 5 | 270 | 3.2 | 3.2 | 0.00 | 0.08 | 0.08 | 62 | 1007.5 |
| 20260506120813 | 5 | 302 | 3.2 | 4.8 | 0.00 | 0.08 | 0.08 | 61 | 1007.6 |
| 20260506120311 | 5 | 282 | 3.2 | 6.4 | 0.00 | 0.08 | 0.08 | 63 | 1007.5 |
| 20260506115808 | 5 | 272 | 1.6 | 6.4 | 0.00 | 0.08 | 0.08 | 65 | 1007.3 |
| 20260506115307 | 5 | 300 | 3.2 | 3.2 | 0.00 | 0.08 | 0.08 | 64 | 1007.4 |
| 20260506114804 | 6 | 295 | 1.6 | 3.2 | 0.00 | 0.08 | 0.08 | 65 | 1007.5 |
| 20260506114302 | 6 | 314 | 3.2 | 6.4 | 0.00 | 0.08 | 0.08 | 63 | 1007.4 |
| 20260506113800 | 6 | 278 | 4.8 | 11.3 | 0.00 | 0.08 | 0.08 | 62 | 1007.3 |
| 20260506113257 | 7 | 272 | 3.2 | 4.8 | 0.00 | 0.08 | 0.08 | 61 | 1007.3 |
| 20260506112754 | 7 | 198 | 4.8 | 6.4 | 0.00 | 0.08 | 0.08 | 58 | 1007.2 |
| 20260506112251 | 7 | 300 | 4.8 | 6.4 | 0.00 | 0.08 | 0.08 | 62 | 1007.2 |
| 20260506111748 | 7 | 273 | 4.8 | 9.7 | 0.00 | 0.08 | 0.08 | 62 | 1007.1 |
| 20260506111246 | 6 | 211 | 3.2 | 9.7 | 0.00 | 0.08 | 0.08 | 63 | 1007.2 |
| 20260506110743 | 7 | 225 | 3.2 | 4.8 | 0.00 | 0.08 | 0.08 | 64 | 1007.3 |
| 20260506110241 | 7 | 256 | 3.2 | 6.4 | 0.00 | 0.08 | 0.08 | 61 | 1007.1 |
| 20260506105737 | 7 | 243 | 1.6 | 4.8 | 0.00 | 0.08 | 0.08 | 67 | 1007.0 |
| 20260506105234 | 6 | 265 | 6.4 | 11.3 | 0.00 | 0.08 | 0.08 | 63 | 1007.2 |
| 20260506104732 | 5 | 284 | 3.2 | 6.4 | 0.00 | 0.08 | 0.08 | 68 | 1006.8 |
| 20260506104229 | 5 | 312 | 3.2 | 9.7 | 0.00 | 0.08 | 0.08 | 69 | 1007.0 |
| 20260506103726 | 5 | 285 | 11.3 | 14.5 | 0.00 | 0.08 | 0.08 | 73 | 1007.0 |
| 20260506103223 | 4 | 293 | 8.0 | 11.3 | 0.00 | 0.08 | 0.08 | 75 | 1007.1 |
| 20260506102721 | 4 | 250 | 3.2 | 11.3 | 0.00 | 0.08 | 0.08 | 74 | 1006.9 |
| 20260506102220 | 5 | 279 | 9.7 | 11.3 | 0.00 | 0.08 | 0.08 | 72 | 1006.8 |
| 20260506101715 | 5 | 277 | 8.0 | 12.9 | 0.00 | 0.08 | 0.08 | 74 | 1006.7 |
| 20260506101212 | 5 | 273 | 6.4 | 11.3 | 0.00 | 0.08 | 0.08 | 74 | 1006.8 |
| 20260506100711 | 5 | 283 | 6.4 | 12.9 | 0.00 | 0.08 | 0.08 | 74 | 1007.0 |
| 20260506100208 | 5 | 264 | 4.8 | 6.4 | 0.00 | 0.08 | 0.08 | 73 | 1006.7 |
| 20260506095706 | 6 | 248 | 4.8 | 9.7 | 0.00 | 0.08 | 0.08 | 71 | 1006.8 |
| 20260506095203 | 5 | 247 | 6.4 | 9.7 | 0.00 | 0.08 | 0.08 | 74 | 1006.7 |
| 20260506094700 | 5 | 259 | 6.4 | 6.4 | 0.00 | 0.08 | 0.08 | 76 | 1006.7 |
| 20260506094158 | 4 | 271 | 6.4 | 12.9 | 0.00 | 0.08 | 0.08 | 75 | 1006.7 |
| 20260506093657 | 5 | 274 | 6.4 | 12.9 | 0.00 | 0.08 | 0.08 | 76 | 1006.7 |
| 20260506093153 | 4 | 303 | 8.0 | 12.9 | 0.00 | 0.08 | 0.08 | 77 | 1006.6 |
| 20260506092651 | 4 | 273 | 6.4 | 12.9 | 0.00 | 0.08 | 0.08 | 78 | 1006.6 |
| 20260506092148 | 3 | 266 | 6.4 | 9.7 | 0.00 | 0.08 | 0.08 | 78 | 1006.5 |
| 20260506091646 | 3 | 223 | 6.4 | 17.7 | 0.00 | 0.08 | 0.08 | 78 | 1006.2 |
| 20260506091143 | 4 | 257 | 6.4 | 14.5 | 0.00 | 0.08 | 0.08 | 78 | 1006.3 |
| 20260506090641 | 5 | 235 | 8.0 | 12.9 | 0.00 | 0.08 | 0.08 | 76 | 1006.2 |
| 20260506090137 | 6 | 288 | 8.0 | 11.3 | 0.00 | 0.08 | 0.08 | 75 | 1006.0 |
| 20260506085634 | 6 | 248 | 4.8 | 11.3 | 0.00 | 0.08 | 0.08 | 66 | 1006.1 |
| 20260506085130 | 5 | 138 | 1.6 | 3.2 | 0.00 | 0.08 | 0.08 | 61 | 1006.1 |
| 20260506084627 | 6 | 213 | 0.0 | 4.8 | 0.00 | 0.08 | 0.08 | 64 | 1006.0 |
| 20260506084124 | 5 | 235 | 1.6 | 6.4 | 0.00 | 0.08 | 0.08 | 64 | 1006.0 |
| 20260506083621 | 5 | 290 | 1.6 | 3.2 | 0.00 | 0.08 | 0.08 | 67 | 1006.0 |
| 20260506083118 | 6 | 226 | 3.2 | 4.8 | 0.00 | 0.08 | 0.08 | 65 | 1005.8 |
| 20260506082615 | 5 | 246 | 3.2 | 3.2 | 0.00 | 0.08 | 0.08 | 68 | 1005.9 |
| 20260506082111 | 5 | 244 | 0.0 | 3.2 | 0.00 | 0.08 | 0.08 | 68 | 1006.0 |
| 20260506081609 | 5 | 246 | 3.2 | 3.2 | 0.00 | 0.08 | 0.08 | 69 | 1005.7 |
| 20260506081106 | 6 | 247 | 3.2 | 6.4 | 0.00 | 0.08 | 0.08 | 68 | 1006.0 |
| 20260506080604 | 6 | 234 | 0.0 | 0.0 | 0.00 | 0.08 | 0.08 | 66 | 1005.6 |
| 20260506073044 | 5 | 167 | 0.0 | 1.6 | 0.00 | 0.08 | 0.08 | 69 | 1005.5 |
| 20260506072541 | 5 | 223 | 1.6 | 1.6 | 0.00 | 0.08 | 0.08 | 72 | 1005.3 |
| 20260506072039 | 5 | 214 | 3.2 | 4.8 | 0.00 | 0.08 | 0.08 | 73 | 1005.3 |
| 20260506071536 | 4 | 223 | 1.6 | 3.2 | 0.00 | 0.08 | 0.08 | 76 | 1005.4 |
| 20260506071034 | 4 | 252 | 0.0 | 0.0 | 0.00 | 0.08 | 0.08 | 76 | 1005.4 |
| 20260506070531 | 3 | 204 | 0.0 | 0.0 | 0.00 | 0.08 | 0.08 | 76 | 1005.5 |
| 20260506062508 | 3 | 282 | 0.0 | 0.0 | 0.00 | 0.08 | 0.08 | 81 | 1004.9 |
| 20260506062005 | 3 | 252 | 0.0 | 0.0 | 0.00 | 0.08 | 0.08 | 81 | 1005.1 |
| 20260506061500 | 3 | 199 | 0.0 | 0.0 | 0.00 | 0.08 | 0.08 | 81 | 1005.1 |
| 20260506060958 | 3 | 199 | 0.0 | 0.0 | 0.00 | 0.08 | 0.08 | 83 | 1005.1 |
| 20260506060457 | 3 | 211 | 0.0 | 0.0 | 0.00 | 0.08 | 0.08 | 84 | 1004.8 |
| 20260506050925 | 4 | 122 | 0.0 | 0.0 | 0.00 | 0.08 | 0.08 | 80 | 1004.6 |
| 20260506050423 | 3 | 82 | 0.0 | 0.0 | 0.00 | 0.08 | 0.08 | 80 | 1004.4 |
| 20260506044913 | 2 | 52 | 0.0 | 0.0 | 0.00 | 0.08 | 0.08 | 92 | 1004.6 |
| 20260506044412 | 2 | 52 | 0.0 | 0.0 | 0.00 | 0.08 | 0.08 | 93 | 1004.6 |
| 20260506043908 | 1 | 52 | 0.0 | 0.0 | 0.00 | 0.08 | 0.08 | 94 | 1004.5 |
| 20260506043406 | 1 | 52 | 0.0 | 0.0 | 0.00 | 0.08 | 0.08 | 94 | 1004.4 |
| 20260506042904 | 1 | 52 | 0.0 | 0.0 | 0.00 | 0.08 | 0.08 | 94 | 1004.5 |
| 20260506042403 | 1 | 52 | 0.0 | 0.0 | 0.00 | 0.08 | 0.08 | 94 | 1004.4 |
| 20260506041900 | 2 | 52 | 0.0 | 0.0 | 0.00 | 0.08 | 0.08 | 95 | 1004.4 |
| 20260506041357 | 1 | 52 | 0.0 | 0.0 | 0.00 | 0.08 | 0.08 | 95 | 1004.3 |
| 20260506040855 | 1 | 52 | 0.0 | 1.6 | 0.00 | 0.08 | 0.08 | 95 | 1004.2 |
| 20260506040352 | 1 | 345 | 0.0 | 0.0 | 0.00 | 0.08 | 0.08 | 95 | 1004.0 |
| 20260506035848 | 1 | 0 | 0.0 | 1.6 | 0.00 | 0.08 | 0.08 | 95 | 1004.1 |
| 20260506035345 | 0 | 53 | 3.2 | 3.2 | 0.00 | 0.08 | 0.08 | 95 | 1004.1 |
| 20260506034843 | 0 | 24 | 3.2 | 3.2 | 0.00 | 0.08 | 0.08 | 95 | 1004.3 |
| 20260506034340 | 1 | 32 | 0.0 | 0.0 | 0.00 | 0.08 | 0.08 | 95 | 1004.0 |
| 20260506033836 | 1 | 311 | 0.0 | 0.0 | 0.00 | 0.08 | 0.08 | 95 | 1004.0 |
| 20260506033334 | 0 | 327 | 0.0 | 0.0 | 0.00 | 0.08 | 0.08 | 95 | 1003.9 |
| 20260506032830 | 1 | 345 | 0.0 | 0.0 | 0.00 | 0.08 | 0.08 | 95 | 1003.9 |
| 20260506032327 | 1 | 30 | 0.0 | 0.0 | 0.00 | 0.08 | 0.08 | 95 | 1003.9 |
| 20260506031824 | 1 | 11 | 0.0 | 0.0 | 0.00 | 0.08 | 0.08 | 95 | 1003.8 |
| 20260506031322 | 1 | 321 | 0.0 | 0.0 | 0.00 | 0.08 | 0.08 | 95 | 1003.9 |
| 20260506030819 | 1 | 305 | 0.0 | 0.0 | 0.00 | 0.08 | 0.08 | 95 | 1003.8 |
| 20260506030317 | 1 | 305 | 0.0 | 0.0 | 0.00 | 0.08 | 0.08 | 95 | 1003.7 |
| 20260506025814 | 1 | 299 | 0.0 | 0.0 | 0.00 | 0.08 | 0.08 | 95 | 1003.7 |
| 20260506025310 | 1 | 290 | 0.0 | 0.0 | 0.00 | 0.08 | 0.08 | 95 | 1003.6 |
| 20260506024807 | 1 | 19 | 0.0 | 0.0 | 0.00 | 0.08 | 0.08 | 95 | 1003.6 |
| 20260506024304 | 1 | 71 | 3.2 | 4.8 | 0.00 | 0.08 | 0.08 | 95 | 1003.4 |
| 20260506023800 | 1 | 64 | 3.2 | 3.2 | 0.00 | 0.08 | 0.08 | 95 | 1003.6 |
| 20260506023257 | 1 | 65 | 3.2 | 3.2 | 0.00 | 0.08 | 0.08 | 95 | 1003.6 |
| 20260506022753 | 1 | 54 | 0.0 | 0.0 | 0.00 | 0.08 | 0.08 | 95 | 1003.5 |
| 20260506022252 | 1 | 61 | 0.0 | 0.0 | 0.00 | 0.08 | 0.08 | 95 | 1003.5 |
| 20260506021749 | 1 | 48 | 1.6 | 3.2 | 0.00 | 0.08 | 0.08 | 95 | 1003.3 |
| 20260506021246 | 1 | 45 | 1.6 | 1.6 | 0.00 | 0.08 | 0.08 | 95 | 1003.4 |
| 20260506020743 | 1 | 28 | 0.0 | 0.0 | 0.00 | 0.08 | 0.08 | 95 | 1003.4 |
| 20260506020241 | 1 | 341 | 0.0 | 1.6 | 0.00 | 0.08 | 0.08 | 95 | 1003.3 |
| 20260506015738 | 1 | 354 | 1.6 | 3.2 | 0.00 | 0.08 | 0.08 | 95 | 1003.3 |
| 20260506015235 | 1 | 22 | 1.6 | 3.2 | 0.00 | 0.08 | 0.08 | 95 | 1003.2 |
| 20260506014732 | 1 | 71 | 3.2 | 3.2 | 0.00 | 0.08 | 0.08 | 94 | 1003.2 |
| 20260506014228 | 1 | 55 | 0.0 | 0.0 | 0.00 | 0.08 | 0.08 | 94 | 1003.4 |
| 20260506013726 | 1 | 25 | 0.0 | 0.0 | 0.00 | 0.08 | 0.08 | 94 | 1003.4 |
| 20260506013223 | 1 | 24 | 0.0 | 0.0 | 0.00 | 0.08 | 0.08 | 94 | 1003.1 |
| 20260506012719 | 1 | 61 | 0.0 | 0.0 | 0.00 | 0.08 | 0.08 | 94 | 1003.2 |
| 20260506012216 | 1 | 39 | 0.0 | 0.0 | 0.00 | 0.08 | 0.08 | 94 | 1003.1 |
| 20260506011713 | 1 | 39 | 0.0 | 0.0 | 0.00 | 0.08 | 0.08 | 94 | 1003.1 |
| 20260506011209 | 1 | 39 | 0.0 | 1.6 | 0.00 | 0.08 | 0.08 | 94 | 1003.2 |
| 20260506010708 | 1 | 15 | 1.6 | 1.6 | 0.00 | 0.08 | 0.08 | 94 | 1003.0 |
| 20260506010205 | 1 | 19 | 1.6 | 3.2 | 0.00 | 0.08 | 0.08 | 94 | 1003.0 |
| 20260506005702 | 1 | 2 | 1.6 | 3.2 | 0.00 | 0.08 | 0.08 | 94 | 1003.1 |
| 20260506005159 | 1 | 315 | 0.0 | 0.0 | 0.00 | 0.08 | 0.08 | 93 | 1003.0 |
| 20260506004655 | 1 | 341 | 3.2 | 3.2 | 0.00 | 0.08 | 0.08 | 93 | 1002.8 |
| 20260506004152 | 1 | 355 | 0.0 | 0.0 | 0.00 | 0.08 | 0.08 | 93 | 1002.9 |
| 20260506003648 | 1 | 13 | 0.0 | 0.0 | 0.00 | 0.08 | 0.08 | 93 | 1002.9 |
| 20260506003145 | 1 | 340 | 0.0 | 0.0 | 0.00 | 0.08 | 0.08 | 93 | 1002.8 |
| 20260506002641 | 1 | 35 | 0.0 | 0.0 | 0.00 | 0.08 | 0.08 | 93 | 1003.1 |
| 20260506002137 | 1 | 26 | 0.0 | 0.0 | 0.00 | 0.08 | 0.08 | 93 | 1002.8 |
| 20260506001633 | 1 | 355 | 0.0 | 0.0 | 0.13 | 0.08 | 0.08 | 93 | 1002.9 |
| 20260506001131 | 1 | 44 | 1.6 | 3.2 | 0.00 | 0.05 | 0.05 | 93 | 1002.7 |
| 20260506000628 | 1 | 72 | 1.6 | 4.8 | 0.18 | 0.05 | 0.05 | 93 | 1002.8 |
| 20260506000125 | 1 | 43 | 1.6 | 3.2 | 0.18 | 0.05 | 0.05 | 93 | 1002.9 |
| 20260505235623 | 1 | 302 | 1.6 | 4.8 | 0.00 | 0.03 | 0.03 | 93 | 1002.8 |
| 20260505235120 | 1 | 343 | 1.6 | 3.2 | 0.00 | 0.03 | 0.03 | 93 | 1002.8 |
| 20260505234617 | 1 | 8 | 1.6 | 3.2 | 0.00 | 0.03 | 0.03 | 93 | 1002.6 |
| 20260505234113 | 1 | 340 | 1.6 | 3.2 | 0.00 | 0.03 | 0.03 | 93 | 1002.7 |
| 20260505233611 | 1 | 339 | 1.6 | 3.2 | 0.00 | 0.03 | 0.03 | 93 | 1002.7 |
| 20260505233108 | 2 | 335 | 3.2 | 3.2 | 0.13 | 0.03 | 0.03 | 93 | 1002.5 |
| 20260505232606 | 2 | 341 | 1.6 | 1.6 | 0.00 | 0.00 | 0.00 | 93 | 1002.7 |
| 20260505232103 | 1 | 16 | 0.0 | 3.2 | 0.00 | 0.00 | 0.00 | 93 | 1002.6 |
| 20260505231600 | 2 | 76 | 3.2 | 4.8 | 0.00 | 0.00 | 0.00 | 93 | 1002.5 |
| 20260505231059 | 2 | 79 | 0.0 | 0.0 | 0.00 | 0.00 | 0.00 | 92 | 1002.5 |
| 20260505230556 | 2 | 66 | 1.6 | 1.6 | 0.00 | 0.00 | 0.00 | 92 | 1002.5 |
| 20260505230052 | 2 | 87 | 1.6 | 3.2 | 0.00 | 0.00 | 0.00 | 92 | 1002.5 |
| 20260505225549 | 2 | 45 | 1.6 | 3.2 | 0.00 | 0.00 | 0.00 | 91 | 1002.5 |
| 20260505225045 | 2 | 27 | 0.0 | 0.0 | 0.00 | 0.00 | 0.00 | 91 | 1002.5 |
| 20260505224542 | 2 | 9 | 0.0 | 0.0 | 0.00 | 0.00 | 0.00 | 91 | 1002.4 |
| 20260505224039 | 2 | 35 | 0.0 | 0.0 | 0.00 | 0.00 | 0.00 | 90 | 1002.5 |
| 20260505223536 | 2 | 340 | 1.6 | 3.2 | 0.00 | 0.00 | 0.00 | 90 | 1002.3 |
| 20260505223032 | 2 | 309 | 3.2 | 3.2 | 0.00 | 0.00 | 0.00 | 90 | 1002.4 |
| 20260505222529 | 2 | 39 | 3.2 | 4.8 | 0.00 | 0.00 | 0.00 | 89 | 1002.4 |
| 20260505222025 | 2 | 25 | 3.2 | 3.2 | 0.00 | 0.00 | 0.00 | 89 | 1002.3 |
| 20260505221523 | 2 | 14 | 3.2 | 3.2 | 0.00 | 0.00 | 0.00 | 88 | 1002.1 |
| 20260505221019 | 2 | 354 | 3.2 | 3.2 | 0.00 | 0.00 | 0.00 | 88 | 1002.2 |
| 20260505220516 | 2 | 285 | 3.2 | 3.2 | 0.00 | 0.00 | 0.00 | 87 | 1002.3 |
| 20260505220014 | 3 | 316 | 0.0 | 0.0 | 0.00 | 0.00 | 0.00 | 87 | 1002.1 |
| 20260505215512 | 3 | 227 | 0.0 | 0.0 | 0.00 | 0.38 | 0.38 | 86 | 1002.1 |
| 20260505215009 | 3 | 260 | 1.6 | 4.8 | 0.00 | 0.38 | 0.38 | 86 | 1002.1 |
| 20260505214508 | 3 | 266 | 4.8 | 6.4 | 0.00 | 0.38 | 0.38 | 85 | 1002.1 |
| 20260505214004 | 3 | 230 | 3.2 | 3.2 | 0.00 | 0.38 | 0.38 | 85 | 1002.0 |
| 20260505213502 | 3 | 290 | 3.2 | 4.8 | 0.00 | 0.38 | 0.38 | 84 | 1002.0 |
| 20260505212958 | 3 | 251 | 3.2 | 3.2 | 0.00 | 0.38 | 0.38 | 84 | 1002.0 |
| 20260505212454 | 3 | 236 | 1.6 | 3.2 | 0.00 | 0.38 | 0.38 | 83 | 1002.0 |
| 20260505211951 | 3 | 326 | 0.0 | 4.8 | 0.00 | 0.38 | 0.38 | 81 | 1001.9 |
| 20260505211449 | 3 | 239 | 1.6 | 6.4 | 0.00 | 0.38 | 0.38 | 82 | 1002.0 |
| 20260505210945 | 3 | 338 | 1.6 | 6.4 | 0.00 | 0.38 | 0.38 | 80 | 1002.1 |
| 20260505210442 | 3 | 240 | 3.2 | 6.4 | 0.00 | 0.38 | 0.38 | 79 | 1001.9 |
| 20260505205939 | 3 | 131 | 6.4 | 9.7 | 0.00 | 0.38 | 0.38 | 78 | 1001.9 |
| 20260505205437 | 3 | 127 | 4.8 | 6.4 | 0.00 | 0.38 | 0.38 | 78 | 1001.9 |
| 20260505204933 | 3 | 142 | 1.6 | 4.8 | 0.00 | 0.38 | 0.38 | 78 | 1001.8 |
| 20260505204432 | 3 | 148 | 3.2 | 4.8 | 0.00 | 0.38 | 0.38 | 78 | 1001.5 |
| 20260505203929 | 3 | 134 | 4.8 | 9.7 | 0.00 | 0.38 | 0.38 | 79 | 1001.6 |
| 20260505203425 | 3 | 123 | 3.2 | 9.7 | 0.00 | 0.38 | 0.38 | 78 | 1001.6 |
| 20260505202921 | 3 | 80 | 4.8 | 6.4 | 0.00 | 0.38 | 0.38 | 79 | 1001.6 |
| 20260505202418 | 3 | 114 | 6.4 | 11.3 | 0.00 | 0.38 | 0.38 | 79 | 1001.5 |
| 20260505201914 | 3 | 94 | 3.2 | 9.7 | 0.00 | 0.38 | 0.38 | 79 | 1001.4 |